Weather History for Page, AZ

Change the Weather History Date:

Thursday, November 24, 2011

  Actual Average Record
Temperature  
Mean Temperature 45 °F -  
Max Temperature 53 °F 51 °F 63 °F (1965)
Min Temperature 37 °F 32 °F 22 °F (1957)
Degree Days  
Heating Degree Days 20    
Moisture  
Dew Point 31 °F    
Average Humidity 60    
Maximum Humidity 76    
Minimum Humidity 43    
Precipitation  
Precipitation 0.00 in - - ()
Sea Level Pressure  
Sea Level Pressure 30.01 in    
Wind  
Wind Speed 1 mph (West)    
Max Wind Speed 5 mph    
Max Gust Speed -    
Visibility 10 miles    
Events      
Averages and records for this station are not official NWS values.
T = Trace of Precipitation, MM = Missing Value Source: NWS Daily Summary

Daily Weather History Graph

Daily Weather History Graph

Search for Another Location

Airport:

Trip Planner

Search our weather history database for the weather conditions in past years. The results will help you decide how hot, cold, wet, or windy it might be!

Date:

Astronomy

Nov. 24, 2011 Rise Set
Actual Time 7:13 AM MST 5:11 PM MST
Civil Twilight 6:45 AM MST 5:39 PM MST
Nautical Twilight 6:13 AM MST 6:11 PM MST
Astronomical Twilight 5:42 AM MST 6:42 PM MST
Moon 6:34 AM MST (11/24) 4:46 PM MST (11/24)
Length of Visible Light 10h 54m
Length of Day
9h 58m
Waning Crescent, 0% of the Moon is Illuminated
Nov 24
Waning Crescent
Nov 24
New
Dec 2
First Quarter
Dec 10
Full
Dec 17
Last Quarter

Hourly Weather History & Observations

Time (MST) Temp. Windchill Dew Point Humidity Pressure Visibility Wind Dir Wind Speed Gust Speed Precip Events Conditions
12:53 AM 39.9 °F - 30.9 °F 70% 30.04 in 7.0 mi Calm Calm - N/A   Clear
1:53 AM 39.0 °F - 30.9 °F 73% 30.04 in 7.0 mi Calm Calm - N/A   Clear
2:53 AM 37.9 °F - 30.0 °F 73% 30.03 in 10.0 mi Calm Calm - N/A   Clear
4:53 AM 37.0 °F - 30.0 °F 76% 30.03 in 10.0 mi Calm Calm - N/A   Clear
5:53 AM 37.4 °F - 30.2 °F 75% 30.07 in 10.0 mi Calm Calm - N/A   Clear
6:53 AM 37.9 °F - 30.0 °F 73% 30.05 in 10.0 mi Calm Calm - N/A   Clear
7:53 AM 39.9 °F 37.8 °F 30.0 °F 68% 30.08 in 9.0 mi WSW 3.5 mph - N/A   Clear
8:53 AM 43.0 °F - 32.0 °F 65% 30.07 in 10.0 mi Calm Calm - N/A   Clear
9:53 AM 46.0 °F - 30.9 °F 56% 30.07 in 10.0 mi Calm Calm - N/A   Clear
10:53 AM 45.0 °F 43.5 °F 30.9 °F 58% 30.07 in 10.0 mi NW 3.5 mph - N/A   Clear
11:53 AM 46.9 °F - 30.9 °F 54% 30.04 in 10.0 mi Variable 3.5 mph - N/A   Clear
12:53 PM 48.2 °F - 33.8 °F 58% 30.04 in 10.0 mi North 3.5 mph - N/A   Clear
1:53 PM 50.0 °F - 33.1 °F 52% 29.99 in 10.0 mi North 4.6 mph - N/A   Clear
2:53 PM 53.1 °F - 33.1 °F 47% 29.95 in 10.0 mi East 3.5 mph - N/A   Clear
3:53 PM 53.1 °F - 30.9 °F 43% 29.94 in 10.0 mi Calm Calm - N/A   Clear
4:53 PM 51.1 °F - 30.0 °F 44% 29.95 in 10.0 mi Calm Calm - N/A   Clear
5:53 PM 46.4 °F - 32.0 °F 57% 29.97 in 9.0 mi Calm Calm - N/A   Clear
6:53 PM 44.1 °F 42.5 °F 30.9 °F 60% 29.94 in 10.0 mi SW 3.5 mph - N/A   Clear
7:53 PM 48.0 °F - 30.9 °F 52% 29.95 in 10.0 mi Calm Calm - N/A   Overcast
8:53 PM 46.4 °F 44.3 °F 30.2 °F 53% 30.00 in 10.0 mi SE 4.6 mph - N/A   Overcast
9:53 PM 48.0 °F - 30.0 °F 50% 29.95 in 9.0 mi Calm Calm - N/A   Overcast
10:53 PM 46.0 °F 43.9 °F 30.9 °F 56% 29.95 in 10.0 mi WSW 4.6 mph - N/A   Clear
11:53 PM 45.0 °F - 32.0 °F 60% 29.95 in 10.0 mi Calm Calm - N/A   Clear